Wind_Speed
42 42 43 44 45 46 47 48 47 45 43 43 42 43 44 45 46 46 45 45 44 43 43 45 47 46 43 41 40 37 35 33 31 31 31 31 30 30 31 31 32 33
41 40 42 43 42 41 42 43 42 40 39 41 42 43 45 45 43 41 40 41 42 44 46 48 48 44 39 37 35 34 33 32 31 31 32 32 31 31 31 31 32 32
46 42 45 47 43 39 41 43 42 41 40 42 43 43 44 44 43 43 44 45 46 46 46 45 42 38 35 34 33 32 30 29 29 29 30 30 30 30 31 31 31 32
54 51 50 50 47 45 46 46 44 42 41 43 45 46 47 48 49 51 52 49 47 45 42 39 37 34 33 31 30 29 28 28 28 27 26 26 26 27 29 31 31 32
59 58 57 55 52 51 52 52 49 45 43 44 46 49 52 53 54 54 50 46 45 42 38 34 31 30 29 29 28 29 29 29 28 27 25 25 24 25 27 29 31 32
60 60 62 61 59 57 56 55 53 50 49 50 51 53 55 55 54 51 48 46 44 39 34 29 27 27 28 28 29 30 31 30 30 29 29 28 27 28 28 28 30 31
60 59 60 61 61 59 56 53 52 51 52 54 56 57 56 53 50 48 46 45 42 38 34 30 29 29 29 30 31 31 31 32 32 32 32 31 31 31 30 28 29 30
58 56 56 57 59 56 52 50 50 51 53 54 55 54 52 49 47 46 45 43 41 39 36 34 33 32 32 32 32 32 32 33 33 33 33 33 33 33 31 29 28 29
56 55 52 52 54 55 53 50 48 48 49 50 50 49 48 47 46 46 44 43 41 40 38 38 37 36 36 34 33 33 33 34 34 34 35 35 35 34 31 29 29 30
54 56 54 49 48 50 51 50 47 46 47 47 46 46 45 44 44 44 44 43 43 42 42 41 40 39 38 35 34 33 34 35 36 37 38 37 36 33 31 30 30 31
52 56 57 54 50 49 51 52 51 49 47 45 45 45 45 44 44 45 45 45 45 45 44 43 41 39 37 35 35 35 36 38 38 39 38 37 35 33 32 32 32 32
51 55 57 57 54 53 53 54 54 52 49 48 47 46 46 46 46 47 48 48 47 45 44 42 40 39 37 37 37 38 39 39 38 38 36 35 33 33 33 34 33 34
50 53 55 56 56 56 55 54 54 52 51 51 50 49 48 47 47 48 48 47 45 43 41 40 39 39 38 38 38 38 38 37 37 37 35 34 33 32 33 34 35 36
51 53 54 55 55 55 54 54 53 52 51 51 50 49 48 48 47 46 46 44 42 40 40 39 39 39 39 39 39 38 37 37 37 36 35 34 34 33 33 34 36 37
51 53 55 55 53 51 49 50 50 51 52 51 50 48 47 47 45 43 41 40 40 40 41 40 39 39 40 40 40 39 38 38 38 37 36 36 36 36 35 36 38 40
46 50 52 51 49 47 45 45 47 50 51 51 50 48 47 45 43 41 41 42 44 44 44 43 43 43 42 41 40 38 38 38 38 38 39 39 39 39 39 40 42 45
38 43 46 45 45 45 45 45 46 49 50 49 49 49 47 46 46 46 48 49 49 49 47 47 46 44 43 42 42 40 39 39 40 40 41 42 42 43 44 45 46 47
41 43 45 44 44 44 44 44 45 47 47 47 48 47 47 47 49 50 52 52 53 52 51 50 48 46 45 45 44 42 41 40 41 42 43 45 46 47 47 47 47 47
49 49 48 46 45 45 44 45 46 46 46 46 46 45 46 47 48 49 50 51 51 51 51 50 49 48 47 46 44 42 40 41 42 44 45 47 47 48 48 48 48 48
50 51 50 47 45 44 44 44 44 43 43 44 44 44 46 47 47 48 49 50 51 52 52 51 50 49 47 45 44 43 42 44 45 46 46 47 48 49 49 50 50 48
48 50 49 47 45 43 42 42 42 42 42 43 45 46 47 47 49 50 52 53 54 55 55 54 52 51 49 47 46 46 47 48 49 49 49 49 50 51 51 50 49 48
48 49 49 49 48 45 43 42 43 45 46 47 49 50 51 53 55 56 57 58 59 60 59 57 55 53 51 50 50 51 52 52 52 52 52 51 52 51 50 49 48 48
50 51 51 52 52 51 49 49 50 51 51 53 56 58 59 60 61 62 62 62 62 62 60 58 56 55 53 53 55 56 56 55 55 54 54 53 52 52 51 51 51 52
51 52 53 54 54 54 55 56 56 56 55 57 59 61 62 62 63 64 63 62 61 59 57 56 55 55 56 58 59 60 59 58 57 55 54 54 54 54 54 55 56 56
52 53 54 55 55 55 55 56 57 57 56 56 57 58 59 60 61 62 62 61 60 58 57 56 56 58 59 61 61 61 60 59 58 57 56 56 56 56 56 57 58 60
55 54 54 55 56 56 55 55 55 56 57 57 57 57 57 58 60 61 62 62 61 60 59 59 60 61 62 62 62 61 60 59 58 58 58 58 58 58 58 58 59 61
Wind_Direction
239 242 242 240 240 245 250 253 255 257 258 259 259 261 261 263 266 270 276 280 284 286 287 290 293 292 289 289 290 286 281 279 280 279 278 276 273 270 266 263 263 263
232 236 238 241 246 250 251 249 249 250 250 253 257 258 260 263 265 269 272 274 278 281 283 286 287 283 281 284 286 284 281 282 283 281 279 276 274 272 268 265 264 263
228 231 235 241 246 248 248 246 244 244 246 249 251 253 257 258 259 264 269 270 274 278 281 282 280 275 276 280 282 281 282 285 287 285 282 280 278 277 273 269 266 264
232 233 236 240 241 241 244 245 244 246 246 245 246 250 253 254 259 269 276 276 277 280 281 279 275 271 272 275 276 278 282 288 290 288 285 284 285 284 280 276 271 266
237 238 240 242 240 240 244 245 247 250 250 247 249 253 255 259 267 274 277 276 277 279 277 274 271 268 268 269 271 275 282 288 291 290 289 289 291 291 288 282 276 271
237 239 243 245 243 245 248 249 251 253 251 250 253 257 261 267 272 273 273 275 275 273 270 269 267 265 265 266 270 275 281 286 289 290 291 292 293 295 293 286 280 275
237 238 243 245 246 248 250 250 251 251 250 251 255 260 264 267 268 268 270 270 268 266 267 268 268 269 269 269 271 276 281 284 287 288 290 292 294 296 295 288 282 278
238 240 242 243 245 247 248 249 251 252 253 254 256 259 262 264 265 266 266 264 264 266 268 271 273 274 274 274 276 278 281 283 284 286 289 292 293 295 294 289 283 280
240 241 243 244 243 244 246 249 252 253 253 254 255 258 260 261 262 262 262 262 264 267 270 274 276 277 278 278 278 278 279 280 282 285 289 291 292 292 290 287 284 281
241 241 244 245 243 242 242 245 250 253 253 254 255 257 258 260 261 262 263 264 266 270 273 276 277 278 278 277 275 275 276 279 282 286 289 290 290 288 285 284 283 282
243 242 243 244 245 244 243 246 251 254 254 255 256 257 258 260 262 264 266 269 271 273 275 276 278 278 277 275 273 274 277 280 284 287 289 289 289 286 283 282 281 281
243 243 242 245 248 249 249 250 252 253 254 255 256 258 260 261 262 265 268 271 273 275 276 277 277 276 275 274 274 276 279 282 285 287 288 288 288 286 283 281 279 279
239 243 244 247 250 252 253 255 255 255 256 257 258 260 261 262 263 265 267 270 272 274 274 274 274 274 274 274 275 277 279 281 285 288 288 288 288 286 283 280 278 277
238 245 247 249 252 253 254 255 256 257 258 259 260 262 263 263 264 264 265 268 270 270 271 272 272 273 274 275 277 280 281 283 286 289 288 288 287 285 283 280 277 276
239 245 248 250 252 254 255 256 257 257 257 258 261 262 263 262 262 262 263 266 267 269 270 271 272 273 275 279 281 283 284 285 287 288 287 287 286 285 284 281 278 279
239 244 246 247 250 252 252 254 255 256 257 258 258 259 260 260 260 261 263 266 268 270 271 272 272 274 277 280 282 283 283 283 283 284 284 285 285 284 284 283 281 283
233 239 242 244 246 249 250 251 253 255 257 258 257 257 258 259 260 262 264 267 270 271 271 271 272 275 278 281 283 282 281 280 281 282 283 284 285 284 284 284 284 285
229 236 242 245 247 248 248 249 251 254 257 257 256 258 259 260 261 263 266 268 269 270 270 271 273 276 280 282 283 283 282 280 281 282 283 284 284 284 284 285 285 287
232 236 242 246 248 249 249 250 252 254 255 255 257 258 259 261 262 264 265 266 266 267 268 271 274 277 280 282 282 282 281 280 280 281 282 282 283 284 285 285 287 289
233 236 240 244 246 247 249 251 252 252 251 252 255 256 258 260 261 261 261 262 262 264 267 271 275 278 280 281 280 280 280 281 281 281 282 283 284 284 285 287 289 291
233 235 237 240 241 243 246 249 248 246 246 248 251 253 255 257 258 259 260 262 264 266 270 273 276 278 278 278 278 280 282 283 284 285 285 285 285 285 287 288 290 291
235 236 237 238 239 239 241 243 244 244 246 248 250 252 253 255 256 258 261 264 267 269 271 273 274 275 275 276 278 281 283 285 286 286 286 286 286 287 288 288 288 288
238 240 241 242 242 241 241 243 246 248 249 251 252 253 254 256 258 260 262 265 268 270 271 272 272 273 274 276 280 283 284 285 286 287 287 287 287 287 286 286 285 285
240 242 243 244 245 246 247 249 251 252 253 253 254 256 257 259 261 264 265 266 268 269 270 271 272 274 276 279 282 284 285 286 287 287 286 285 284 284 283 283 283 283
236 239 241 243 245 247 248 250 252 253 254 254 255 256 259 261 263 265 266 267 267 268 270 272 274 277 279 281 283 284 285 286 285 284 283 282 281 280 280 279 280 280
233 236 239 242 244 246 248 249 250 251 252 253 254 255 257 260 262 264 265 266 267 268 270 272 274 277 279 281 282 283 284 283 282 282 281 280 280 279 279 279 279 279
Height
10658 10661 10664 10668 10671 10672 10672 10672 10673 10676 10679 10681 10683 10684 10686 10687 10688 10689 10689 10690 10690 10691 10692 10692 10693 10692 10692 10692 10691 10691 10691 10690 10689 10688 10687 10687 10687 10686 10685 10684 10683 10683
10654 10656 10660 10663 10666 10667 10667 10666 10668 10672 10675 10677 10679 10680 10681 10682 10683 10684 10684 10685 10686 10687 10688 10689 10688 10688 10687 10688 10688 10687 10687 10686 10686 10685 10684 10683 10682 10682 10681 10680 10679 10679
10653 10654 10657 10660 10662 10663 10662 10662 10665 10669 10672 10674 10675 10676 10677 10678 10678 10679 10680 10681 10682 10683 10684 10684 10684 10683 10683 10684 10684 10684 10684 10683 10682 10681 10680 10680 10679 10678 10677 10677 10676 10675
10655 10654 10655 10657 10659 10659 10658 10659 10661 10665 10668 10669 10670 10672 10672 10673 10673 10673 10675 10676 10677 10678 10679 10679 10679 10679 10679 10680 10680 10681 10680 10679 10679 10679 10678 10677 10676 10675 10674 10673 10673 10672
10655 10655 10654 10655 10655 10655 10655 10655 10658 10661 10664 10665 10666 10667 10668 10668 10668 10668 10669 10671 10672 10673 10674 10675 10675 10675 10675 10676 10676 10677 10676 10676 10676 10675 10675 10674 10673 10672 10671 10670 10669 10668
10653 10653 10652 10651 10652 10652 10652 10653 10655 10657 10659 10661 10662 10662 10663 10663 10663 10663 10665 10666 10668 10669 10670 10670 10671 10671 10671 10671 10672 10672 10672 10671 10672 10672 10671 10671 10670 10669 10668 10666 10665 10665
10650 10650 10649 10648 10648 10648 10649 10650 10651 10652 10655 10657 10657 10657 10658 10658 10658 10659 10660 10662 10664 10665 10666 10666 10667 10667 10668 10667 10667 10667 10667 10667 10667 10667 10667 10667 10666 10665 10664 10663 10661 10661
10647 10647 10646 10644 10642 10644 10646 10646 10647 10648 10650 10652 10652 10652 10653 10654 10654 10655 10656 10658 10659 10660 10661 10662 10662 10663 10663 10663 10663 10663 10663 10663 10662 10662 10662 10662 10661 10660 10659 10658 10657 10656
10643 10643 10642 10640 10639 10641 10642 10641 10642 10644 10645 10646 10647 10648 10649 10649 10650 10651 10652 10654 10655 10656 10656 10657 10658 10658 10659 10659 10658 10658 10658 10658 10658 10658 10658 10657 10657 10655 10654 10653 10653 10652
10639 10639 10639 10637 10636 10637 10637 10637 10638 10639 10640 10642 10642 10643 10643 10645 10646 10646 10647 10649 10649 10651 10651 10652 10653 10653 10654 10654 10654 10654 10654 10653 10653 10653 10653 10652 10652 10650 10649 10648 10648 10648
10634 10634 10635 10634 10634 10634 10633 10633 10633 10634 10635 10636 10637 10637 10638 10640 10641 10641 10642 10643 10644 10645 10646 10647 10647 10648 10649 10649 10649 10649 10649 10649 10648 10648 10648 10648 10647 10646 10644 10644 10644 10643
10628 10628 10629 10630 10629 10629 10629 10628 10628 10629 10630 10630 10631 10632 10633 10635 10636 10636 10637 10637 10638 10639 10640 10641 10642 10642 10643 10644 10644 10645 10644 10644 10643 10643 10643 10643 10642 10641 10640 10639 10639 10639
10623 10622 10624 10624 10623 10623 10623 10623 10623 10624 10624 10624 10626 10627 10628 10630 10630 10631 10631 10631 10632 10633 10634 10635 10635 10636 10638 10638 10639 10639 10639 10639 10638 10638 10638 10637 10637 10637 10636 10635 10634 10633
10618 10617 10617 10617 10616 10616 10617 10617 10617 10618 10618 10619 10620 10622 10623 10624 10624 10625 10625 10625 10627 10627 10628 10629 10630 10631 10632 10633 10633 10633 10633 10633 10633 10633 10632 10632 10632 10632 10632 10631 10629 10628
10613 10611 10611 10610 10610 10610 10611 10611 10611 10611 10612 10614 10616 10617 10617 10617 10618 10619 10620 10620 10621 10621 10623 10624 10625 10626 10626 10626 10627 10627 10627 10627 10627 10627 10627 10626 10626 10626 10627 10627 10624 10623
10608 10605 10604 10605 10605 10605 10606 10606 10605 10605 10606 10609 10611 10610 10610 10611 10613 10614 10614 10614 10614 10616 10618 10619 10619 10620 10620 10620 10621 10621 10621 10621 10621 10621 10621 10621 10621 10621 10622 10622 10620 10618
10603 10599 10597 10599 10599 10599 10600 10600 10598 10597 10599 10602 10603 10604 10605 10607 10607 10607 10607 10608 10609 10611 10612 10613 10613 10614 10614 10615 10615 10616 10616 10616 10616 10616 10615 10615 10615 10615 10616 10616 10615 10613
10598 10594 10592 10593 10594 10593 10594 10594 10591 10591 10592 10594 10596 10598 10600 10601 10600 10600 10602 10603 10604 10604 10605 10606 10607 10608 10609 10609 10610 10610 10611 10611 10611 10610 10610 10610 10609 10609 10609 10609 10608 10606
10592 10589 10587 10588 10588 10587 10587 10587 10586 10586 10587 10588 10591 10593 10593 10593 10594 10595 10597 10597 10597 10597 10598 10599 10601 10603 10604 10604 10605 10605 10606 10606 10605 10605 10605 10604 10603 10602 10601 10601 10600 10599
10584 10584 10583 10582 10582 10582 10582 10581 10581 10582 10583 10584 10586 10587 10587 10588 10589 10589 10589 10590 10590 10591 10593 10594 10596 10597 10598 10599 10599 10599 10600 10600 10600 10599 10599 10598 10596 10595 10594 10593 10593 10592
10577 10577 10576 10576 10576 10577 10577 10577 10577 10578 10579 10580 10581 10581 10582 10583 10583 10582 10582 10583 10584 10585 10588 10590 10591 10591 10592 10592 10592 10593 10593 10593 10593 10592 10592 10591 10590 10589 10588 10587 10586 10585
10569 10570 10570 10570 10571 10572 10573 10573 10573 10574 10576 10576 10576 10576 10576 10576 10576 10576 10577 10577 10578 10580 10582 10584 10584 10584 10584 10585 10585 10586 10586 10586 10586 10585 10585 10584 10583 10582 10581 10581 10580 10579
10563 10563 10563 10564 10565 10566 10568 10568 10568 10569 10571 10571 10570 10569 10569 10570 10570 10570 10572 10573 10573 10573 10575 10577 10577 10577 10577 10577 10578 10578 10579 10579 10579 10578 10577 10576 10575 10574 10575 10574 10574 10573
10556 10556 10557 10557 10559 10560 10561 10562 10561 10562 10564 10564 10563 10562 10563 10563 10563 10563 10565 10567 10567 10567 10568 10569 10569 10570 10570 10570 10570 10570 10570 10571 10570 10570 10569 10569 10568 10568 10569 10568 10568 10567
10549 10549 10550 10551 10552 10553 10554 10555 10555 10556 10557 10556 10556 10556 10556 10556 10556 10556 10558 10559 10560 10561 10561 10561 10562 10562 10562 10562 10562 10562 10562 10562 10562 10562 10562 10562 10562 10562 10563 10563 10562 10561
10542 10543 10544 10545 10546 10547 10547 10548 10548 10548 10549 10550 10550 10550 10550 10549 10549 10550 10550 10552 10553 10554 10555 10555 10555 10556 10556 10555 10555 10554 10554 10553 10553 10553 10553 10554 10554 10554 10555 10556 10555 10553